Showing default

GONETS M 11 (M21), 40552

Orbit data source: Space-Track

GONETS M 11 (M21), 40552 is a payload satellite owned by Gonets (CIS) in LEO that was launched on Tue, 31 Mar 2015 UTC via an ROKOT launch vehicle from the Plesetsk Missile And Space Complex (PKMTR). Payload-class satellites include a variety of spacecraft equipped with specific instruments for various scientific and technological missions. These include communications satellites like Starlink; space stations such as the ISS; scientific satellites like the Hubble; Earth observation satellites from companies like Planet Labs, Umbra, and HawkEye 360; GPS; miniature CubeSats for education and research; and military/defense satellites.

Loading next visibility...
Identifier
40552, 2015-020A
Orbit
LEO
Country
Flag of CISCIS
Related business
Manufacturer
Resehetnev ISS
Mission
Operational Commercial Communications
Bus & Motor
STRELA-3M, Unknown motor
Mass
225 kg wet, 225 kg dry
Launch date (UTC)
2015-03-31 (11 years ago)
Launch vehicle
ROKOT
Launch site
Plesetsk Missile And Space Complex (PKMTR)
Object type
Payload
Rocket body
Debris
Shape & HBR
Cyl + 1 Ant, 3.5 m
Radar Cross Section
1.798 m², Large (>1 m²)

Expand to show TLE details & history
Last TLE update: 6 hours ago

TLE from 6 hours ago
0 GONETS M 11 (M21)
1 40552U 15020A   26174.93115527 -.00000019  00000-0 -21070-3 0  9992
2 40552  82.4869  26.7886 0016286 351.2984   8.7811 12.42877335509570
Epoch: 2026-06-23T22:20Z
TLE epoch observation values (Epoch: 2026-06-23T22:20:51.815Z)
Latitude
-0.00001°
Longitude
139.47706°
Altitude
1,484.456 km
Speed
7.127 km/s
True Right ascension
01h 47m 09s
True Declination
0° 00' 00"
Sunlit
Object was in daylight at epoch
Visualization orbit readout
Latitude
Unknown
Longitude
Unknown
Altitude
Unknown
Speed
Unknown
Apparent Right ascension
Unknown
Apparent Declination
Unknown
Sunlit
N/A
Visualization observer readout
Local Sidereal Time
15:35:00
Azimuth
Unknown
Elevation
Unknown
Doppler factor
Unknown
Orbital elements
Apogee altitude
1,504.598 km
Perigee altitude
1,478.964 km
Semi-major axis
7,869.918 km
Eccentricity
0.00163
Inclination
82.4869°
RAAN
26.7886°
Arg. of periapsis
351.2984°
True anomaly
8.80965°
Mean anomaly
8.7811°
Eccentric anomaly
8.79537°
Mean motion
3.10876 °/min
Orbital period
115.8 mins
BSTAR
-0.0002107
Loading maneuver chart data...
Computing Atmospheric mass density...
Loading historical data...
Loading historical data...
Loading historical data...
Loading historical data...
Loading historical data...
Loading historical data...
Loading historical data...

Documentation

Showing up to 5 results
|